TimeMST,TemperatureF,Dew PointF,Humidity,Sea Level PressureIn,VisibilityMPH,Wind Direction,Wind SpeedMPH,Gust SpeedMPH,PrecipitationIn,Events,Conditions,WindDirDegrees,DateUTC
12:53 AM,3.9,-0.0,84,30.48,10.0,Calm,Calm,-,N/A,,Clear,0,2013-01-05 07:53:00
1:53 AM,6.1,1.9,83,30.47,10.0,ESE,5.8,-,N/A,,Clear,110,2013-01-05 08:53:00
2:53 AM,6.1,1.0,80,30.48,10.0,East,8.1,-,N/A,,Clear,90,2013-01-05 09:53:00
3:53 AM,1.9,-2.9,80,30.53,10.0,NE,4.6,-,N/A,,Clear,40,2013-01-05 10:53:00
4:53 AM,-0.0,-4.0,83,30.55,10.0,East,4.6,-,N/A,,Clear,80,2013-01-05 11:53:00
5:53 AM,3.9,-0.9,80,30.56,10.0,East,8.1,-,N/A,,Clear,90,2013-01-05 12:53:00
6:53 AM,1.9,-2.9,80,30.60,10.0,East,5.8,-,N/A,,Clear,90,2013-01-05 13:53:00
7:53 AM,3.0,-2.0,80,30.62,10.0,East,6.9,-,N/A,,Clear,100,2013-01-05 14:53:00
8:53 AM,6.1,-0.0,76,30.63,10.0,East,8.1,-,N/A,,Clear,100,2013-01-05 15:53:00
9:53 AM,10.0,1.9,70,30.66,10.0,East,6.9,-,N/A,,Clear,100,2013-01-05 16:53:00
10:53 AM,16.0,5.0,62,30.65,10.0,East,5.8,-,N/A,,Clear,100,2013-01-05 17:53:00
11:53 AM,19.9,8.1,60,30.60,10.0,SE,4.6,-,N/A,,Clear,130,2013-01-05 18:53:00
12:53 PM,25.0,8.1,49,30.55,10.0,Calm,Calm,-,N/A,,Clear,0,2013-01-05 19:53:00
1:53 PM,26.1,8.1,47,30.51,10.0,WSW,3.5,-,N/A,,Clear,250,2013-01-05 20:53:00
2:53 PM,28.9,9.0,43,30.50,10.0,Calm,Calm,-,N/A,,Clear,0,2013-01-05 21:53:00
3:53 PM,28.9,10.0,45,30.53,10.0,Calm,Calm,-,N/A,,Clear,0,2013-01-05 22:53:00
4:53 PM,25.0,10.0,53,30.56,10.0,SSW,5.8,-,N/A,,Clear,210,2013-01-05 23:53:00
5:53 PM,23.0,10.0,58,30.56,10.0,SW,3.5,-,N/A,,Clear,220,2013-01-06 00:53:00
6:53 PM,16.0,8.1,71,30.61,10.0,Calm,Calm,-,N/A,,Clear,0,2013-01-06 01:53:00
7:53 PM,12.9,6.1,74,30.64,10.0,NE,5.8,-,N/A,,Clear,40,2013-01-06 02:53:00
8:53 PM,9.0,3.9,80,30.65,10.0,North,3.5,-,N/A,,Clear,10,2013-01-06 03:53:00
9:53 PM,8.1,3.9,83,30.64,10.0,NE,3.5,-,N/A,,Clear,40,2013-01-06 04:53:00
10:53 PM,10.9,5.0,77,30.60,10.0,East,8.1,-,N/A,,Clear,90,2013-01-06 05:53:00
11:53 PM,9.0,3.9,80,30.59,10.0,East,5.8,-,N/A,,Clear,80,2013-01-06 06:53:00